Volver al catálogo

H-2A R/B

ActivoHEO
NORAD 41837·ROCKET BODY·🇯🇵 Japan

Lanzado Nov 2, 2016 desde Tanegashima Space Center

Loading…

Próximos Pases (próximas 24 horas)

TLE

ActualizadoSource: Space-Track

Época: Sep 14, 2026, 08:57 UTC

1 41837U 16064B   26257.37296355  .00019633  00000-0  10679-2 0  9999
2 41837  22.3416 159.6510 6296226 139.4984 290.3938  3.65784952101220

Sigue H-2A R/B en tiempo real con AllMySat

Download on the App Store